ARIANE 2 DEB, 27029

Orbit data source: Space-Track

ARIANE 2 DEB, 27029 is space debris in HEO originally from a launch on Fri, 27 Jan 1989 UTC launched from the French Guiana (FRGUI). Debris objects in space refer to the collection of defunct objects orbiting the Earth. Examples of debris include non-operational satellites, rocket bodies, and fragments generated from explosions, collisions, or faulty payload assembly.

Loading next visibility...
Identifier
27029, 1989-006J
Orbit
HEO
Country
Flag of FRFR
Related business
Manufacturer
EADS/LV
Mission
Spacecraft
Bus & Motor
Unknown
Mass
Unknown
Launch date (UTC)
1989-01-27 (37 years ago)
Launch vehicle
Unknown
Launch site
French Guiana (FRGUI)
Object type
Payload
Rocket body
Debris
Shape & HBR
Unknown shape, 0.4 m
Radar Cross Section
Medium (>0.1 m² and <1 m²)

Expand to show TLE details & history
Last TLE update: 11 months ago

TLE from 11 months ago
0 ARIANE 2 DEB
1 27029U 89006J   25001.52767253  .00001987  00000-0  28602-1 0  9992
2 27029   8.9687   7.4621 7131308 217.5883  60.6819  2.28598028195365
Epoch: 2025-01-01T12:39Z
TLE epoch observation values (Epoch: 2025-01-01T12:39:50.906Z)
Latitude
-0°
Longitude
76.1946°
Altitude
21,155.994 km
Speed
3.546 km/s
True Right ascension
00h 30m 18s
True Declination
0° 00' 00"
Sunlit
Object was in daylight at epoch
Visualization orbit readout
Latitude
Unknown
Longitude
Unknown
Altitude
Unknown
Speed
Unknown
Apparent Right ascension
Unknown
Apparent Declination
Unknown
Sunlit
N/A
Visualization observer readout
Local Sidereal Time
13:23:45
Azimuth
Unknown
Elevation
Unknown
Doppler factor
Unknown
Orbital elements
Apogee altitude
35,331.326 km
Perigee altitude
606.245 km
Semi-major axis
24,346.923 km
Eccentricity
0.71313
Inclination
8.9687°
RAAN
7.4621°
Arg. of periapsis
217.5883°
True anomaly
142.60474°
Mean anomaly
60.6819°
Eccentric anomaly
100.81548°
Mean motion
0.57132 °/min
Orbital period
630.12 mins
BSTAR
0.028602
Loading maneuver chart data...
Computing Atmospheric mass density...
Loading historical data...
Loading historical data...
Loading historical data...
Loading historical data...
Loading historical data...
Loading historical data...
Loading historical data...

Documentation

Showing up to 5 results
|